Temperature
27 27 28 28 28 27 27 28 28 29 29 29 28 27 26 24 24 23 23 22 22 21 21 20 20 20 20 20 19 19 19 19 19 19 19 18 18 18 18 18 17 17 17 17
25 26 27 27 27 27 27 28 28 28 28 29 27 25 24 23 23 23 22 22 21 21 20 20 20 20 19 19 19 19 19 19 19 19 19 18 18 18 18 18 17 17 17 17
25 26 26 26 27 27 27 27 27 27 27 27 26 25 23 23 23 22 22 21 20 20 20 19 19 19 19 19 19 19 19 18 18 18 18 18 18 18 18 17 17 17 17 16
25 24 23 27 27 27 26 26 27 26 26 25 24 22 22 22 21 21 21 20 20 19 19 19 19 19 19 18 18 18 18 18 18 18 18 17 17 17 17 17 17 16 16 16
24 24 25 26 25 25 25 25 25 25 24 23 22 22 22 20 20 19 19 19 19 19 19 19 18 18 18 18 18 18 18 18 18 18 17 17 17 17 16 16 16 16 15 15
23 22 23 25 25 24 24 24 24 23 23 22 22 23 22 19 18 18 18 18 18 18 18 18 18 18 18 18 18 17 17 17 17 17 17 16 16 16 16 16 16 15 15 15
22 22 24 24 23 23 23 23 22 22 21 21 21 21 19 18 18 17 17 17 17 17 17 17 17 17 17 17 17 17 17 17 17 16 16 16 16 16 16 15 15 15 14 14
22 22 23 23 22 22 22 21 21 20 20 19 19 18 18 17 17 17 17 17 17 17 17 17 17 17 16 16 16 16 16 16 16 16 16 15 15 15 15 15 14 14 14 14
22 22 21 20 20 20 19 20 19 19 19 18 18 17 17 17 17 16 16 16 16 16 16 16 16 16 16 16 16 16 15 15 15 15 15 15 15 15 14 14 14 14 14 14
20 21 20 19 19 18 18 18 18 18 18 17 17 17 16 16 16 16 16 15 15 15 16 16 15 15 15 15 15 15 15 15 15 15 14 14 14 14 14 14 14 14 14 13
19 20 19 18 18 17 17 17 17 17 17 17 16 16 16 16 16 15 15 15 15 15 15 15 15 15 15 15 15 15 14 14 14 14 14 13 13 13 13 13 13 13 13 13
19 19 18 18 17 16 16 16 16 16 16 16 16 16 16 15 15 15 15 15 15 15 15 15 14 14 14 14 14 14 14 14 14 14 13 13 13 13 13 13 13 13 13 12
17 16 16 16 15 15 15 15 15 15 15 16 15 15 15 15 14 14 14 14 14 14 14 14 14 14 14 14 14 14 13 13 13 13 13 13 13 13 12 12 12 12 12 12
15 15 15 15 15 15 15 15 15 15 15 15 15 15 14 14 14 14 14 14 14 14 14 14 14 13 13 13 13 13 13 13 13 13 13 13 13 12 12 12 12 12 12 12
14 14 15 14 14 14 14 14 14 14 14 14 14 14 14 14 13 13 14 14 14 13 13 13 13 13 13 13 13 13 13 12 12 13 13 12 12 12 12 12 12 12 11 11
14 14 14 14 14 14 14 14 14 14 14 13 13 13 13 13 13 13 13 13 13 13 13 13 13 13 13 13 13 12 12 12 12 12 12 12 12 12 12 11 11 11 11 11
14 14 14 14 14 14 14 14 13 13 13 13 13 13 13 13 13 13 13 13 13 13 13 12 12 12 12 12 12 12 12 12 12 12 12 12 11 11 11 11 11 11 11 10
13 13 13 14 14 13 13 13 13 13 13 12 12 12 12 12 12 12 13 13 12 12 12 12 12 12 12 12 12 12 12 11 11 11 11 11 11 11 11 11 11 10 10 10
13 13 13 13 13 13 13 13 13 12 12 12 12 12 12 12 12 12 12 12 12 12 12 12 12 12 12 12 12 12 12 12 11 11 11 11 10 11 11 11 10 10 10 10
12 12 12 12 12 12 12 12 12 12 12 12 12 12 12 12 12 12 12 12 12 12 12 11 11 11 11 11 11 11 11 11 11 11 11 11 11 10 10 10 10 10 10 10
12 12 12 12 12 12 12 12 12 12 11 11 11 11 11 11 11 11 11 11 11 11 11 11 11 11 11 11 11 11 11 11 11 11 11 11 11 10 10 10 10 10 10 10
11 11 11 11 11 11 11 11 11 11 11 11 11 11 11 11 11 11 11 11 11 11 11 11 11 11 11 11 11 11 11 11 11 11 10 10 10 10 10 10 10 10 9 9
11 11 11 11 11 11 11 11 11 11 11 11 11 11 11 11 11 11 11 11 11 11 11 11 11 11 11 11 11 11 11 10 10 10 10 10 10 10 10 10 10 9 9 9
11 11 11 11 11 11 11 11 11 11 11 11 11 11 11 11 10 11 11 11 11 10 10 10 11 11 11 11 11 10 10 10 10 10 10 10 10 10 10 10 9 9 9 9
11 11 11 11 11 11 11 11 11 11 11 11 11 11 11 10 10 10 10 10 10 10 10 10 10 10 10 10 10 10 10 10 10 10 10 10 10 9 9 9 9 9 9 8
11 11 11 11 11 11 11 11 11 11 11 11 11 11 11 10 10 10 10 10 10 10 10 10 10 10 10 10 10 10 10 10 10 9 9 9 9 9 9 9 9 8 8 8
11 11 11 11 11 11 11 11 11 11 11 11 11 11 11 10 10 10 10 10 10 10 10 10 10 10 10 10 10 10 10 9 9 9 9 9 9 9 8 8 8 8 8 8
Wind_Speed
12 10 11 13 14 14 16 17 17 16 15 11 7 6 5 5 4 4 4 4 4 5 6 7 7 8 9 9 10 10 11 11 11 11 10 10 9 9 9 9 9 8 8 8
12 11 12 15 15 15 17 16 17 16 15 9 5 4 4 5 5 5 5 5 5 5 6 7 7 8 8 9 9 10 10 11 10 10 10 10 9 9 9 9 9 9 9 8
12 9 11 15 13 14 14 13 14 14 10 6 5 4 5 5 5 5 5 4 5 5 5 6 7 7 7 7 8 9 10 10 10 10 10 10 9 9 9 9 9 9 9 9
10 8 14 7 2 7 10 10 9 9 7 5 5 5 4 4 3 3 3 3 3 3 4 5 5 6 6 6 7 8 9 9 9 9 9 9 9 8 8 7 7 7 8 8
9 13 14 8 4 6 8 9 6 7 5 4 4 4 4 2 3 3 3 2 2 2 2 3 4 5 5 5 5 7 8 8 8 8 8 8 8 8 7 6 6 7 7 7
10 12 13 6 2 3 7 10 2 4 5 5 4 6 4 3 4 3 2 1 1 1 2 3 3 4 5 4 4 5 6 7 7 7 7 7 7 6 6 6 6 6 5 6
15 14 11 2 1 4 9 5 2 4 5 6 6 6 4 4 3 3 2 1 1 2 2 2 3 4 4 4 4 4 4 5 6 6 6 6 6 5 6 5 5 5 5 4
12 14 10 2 2 5 5 4 5 6 5 5 5 4 4 3 3 3 2 2 2 2 2 2 2 3 3 3 2 2 3 5 5 5 5 5 5 5 5 5 5 5 4 3
8 6 3 3 4 5 6 7 7 7 6 6 6 5 3 3 2 2 2 2 2 3 3 2 2 2 3 2 2 3 3 4 4 5 4 4 5 5 5 5 4 4 4 3
8 7 5 6 6 6 7 8 8 7 6 6 6 5 4 3 2 2 3 3 3 3 3 3 2 2 2 2 2 3 3 3 4 5 5 5 4 4 4 4 4 4 4 3
11 9 8 7 6 6 7 8 7 6 6 5 5 5 4 3 3 2 3 2 3 3 3 3 3 2 1 2 3 3 3 3 4 4 4 5 4 3 4 2 2 3 3 3
10 7 7 8 8 8 8 7 7 6 6 5 5 5 5 4 3 3 3 3 3 3 3 3 3 2 2 2 3 4 4 3 3 3 4 5 5 4 4 3 4 3 1 1
9 9 9 9 9 8 8 8 7 6 6 5 5 5 4 4 3 3 3 3 3 3 3 3 3 3 2 3 3 4 4 3 3 4 4 4 5 5 4 3 5 5 4 3
7 7 8 9 8 8 7 7 6 6 5 5 4 3 3 3 3 4 3 3 3 3 3 4 3 3 3 3 3 4 4 4 4 4 4 4 5 5 4 4 3 2 4 5
8 8 8 8 8 8 7 6 5 5 4 4 3 3 3 4 4 4 3 3 3 4 4 4 3 3 3 3 3 3 3 3 3 3 3 4 4 4 4 4 3 3 4 5
8 8 8 8 7 7 6 5 5 4 4 3 2 3 3 3 3 3 3 4 4 4 4 3 3 2 3 4 4 3 3 3 3 3 4 4 4 4 4 4 4 4 3 3
8 8 8 7 7 6 6 5 4 4 3 3 3 3 3 3 3 3 3 4 5 4 4 3 2 2 3 3 3 2 3 4 5 4 4 4 4 4 4 4 3 3 2 2
8 8 7 7 6 6 5 4 3 2 2 2 3 3 4 4 4 4 4 4 5 4 4 3 3 3 3 3 3 3 3 4 4 3 3 4 3 3 3 3 3 3 2 3
6 6 6 5 4 4 4 3 2 1 1 2 3 3 4 4 4 4 4 4 5 4 4 4 4 4 3 3 3 2 3 3 3 3 3 4 3 3 3 3 3 3 3 2
3 3 3 3 3 3 3 2 2 1 1 2 2 2 3 3 3 3 3 3 3 2 3 4 4 3 3 3 3 3 3 3 4 4 4 4 3 3 3 3 2 2 2 2
2 2 2 1 1 1 1 2 2 2 2 3 3 3 2 2 3 3 3 3 2 2 3 4 3 3 3 3 4 3 3 3 3 3 3 4 3 3 3 3 2 2 2 2
2 2 1 1 0 0 1 2 2 2 2 2 3 3 3 2 3 3 3 1 2 3 2 3 3 3 2 3 3 3 4 3 3 3 3 3 3 3 3 3 3 3 3 2
2 2 1 0 1 1 1 1 1 2 2 2 3 3 3 2 1 2 1 1 2 3 2 2 3 4 4 4 3 3 3 4 3 3 3 3 3 3 3 3 3 3 2 2
2 2 1 1 1 1 2 2 1 2 2 2 3 3 3 2 2 1 1 3 3 3 2 3 4 3 3 3 3 3 3 3 3 3 3 3 3 3 3 3 2 2 2 2
2 2 2 1 1 1 2 2 2 2 2 2 3 4 3 2 2 1 1 2 3 3 2 3 4 3 2 1 2 2 2 2 2 2 2 2 2 2 2 2 2 2 2 1
1 1 1 1 1 1 2 2 2 2 2 2 2 3 3 3 3 2 2 2 3 2 1 1 2 2 1 1 1 1 2 2 2 1 1 1 1 1 1 1 1 1 1 1
1 1 1 1 1 1 2 2 2 2 2 3 3 3 3 2 2 2 2 2 2 2 2 1 2 2 2 1 1 1 1 1 1 1 1 1 1 1 1 1 1 1 1 1
Wind_Direction
262 269 261 251 248 244 246 255 262 267 270 278 284 281 272 268 260 245 233 221 211 204 196 191 189 188 188 189 190 191 191 193 195 195 195 197 199 202 203 207 211 212 217 221
255 256 256 255 252 247 248 253 259 267 268 286 301 284 266 256 249 242 238 230 223 211 202 200 199 195 188 192 191 191 195 196 195 193 194 197 198 199 203 206 212 211 216 222
255 251 257 249 245 244 244 249 258 264 276 297 289 280 269 261 251 249 246 236 232 227 213 206 203 197 192 193 193 192 196 196 195 195 197 200 201 200 204 208 211 213 217 221
257 251 248 254 255 253 253 254 264 271 281 292 299 295 285 274 264 264 261 247 239 231 214 205 199 190 189 187 192 196 197 196 193 195 199 202 205 206 208 209 211 216 220 221
246 249 253 243 231 244 250 252 263 270 278 291 303 279 254 274 284 265 255 242 243 236 216 191 186 181 178 180 186 193 196 196 196 195 199 201 204 206 207 209 213 218 223 226
240 251 252 245 183 258 260 244 243 272 274 278 274 264 263 292 284 272 251 219 212 197 175 163 168 169 169 173 176 186 193 192 192 193 194 199 202 201 202 206 214 221 225 230
241 246 251 266 296 254 244 262 325 290 276 267 267 287 297 282 270 248 228 198 185 157 148 150 156 159 162 165 176 185 186 181 185 187 187 195 194 198 200 203 206 214 216 220
238 243 243 53 270 256 292 320 301 297 288 280 283 288 278 270 247 220 204 186 174 154 145 146 154 159 161 163 165 167 173 177 184 188 192 188 184 192 197 196 197 200 196 207
241 253 330 320 290 298 298 291 291 290 287 274 272 269 263 257 236 218 197 186 188 171 155 158 169 172 172 165 166 165 166 171 177 184 188 189 190 188 194 199 203 194 196 201
259 256 277 287 292 294 298 296 291 284 278 268 262 259 255 248 236 210 197 193 192 176 166 169 174 175 181 171 162 158 160 170 172 174 179 179 187 191 200 201 200 199 200 199
258 268 277 273 284 290 297 296 293 286 277 267 258 258 254 236 232 220 201 200 193 180 174 176 173 170 183 169 165 165 165 174 177 173 171 170 172 177 192 188 193 201 200 194
266 279 281 286 298 296 293 292 290 285 281 272 259 256 244 229 226 218 212 205 192 176 169 163 157 164 180 176 172 172 173 181 184 177 171 173 167 154 87 98 96 95 75 189
278 287 285 284 286 289 287 284 285 281 275 272 267 255 237 223 219 213 204 199 189 177 169 166 162 169 175 172 173 176 180 185 186 179 174 176 175 173 157 119 97 95 104 111
271 276 274 273 279 283 280 280 283 282 276 272 266 248 229 214 209 212 214 204 186 170 169 169 166 168 167 163 170 177 180 178 184 180 178 175 176 176 171 162 152 138 125 133
269 271 273 279 279 280 277 273 270 268 267 262 235 227 220 214 209 209 207 196 179 172 171 170 169 170 171 167 167 175 177 173 171 168 172 175 176 174 172 168 166 160 150 141
275 272 272 271 272 274 272 265 261 262 262 240 224 217 213 207 201 195 194 186 181 182 177 171 165 164 166 164 160 163 155 131 154 166 169 170 176 177 175 175 177 176 178 172
267 263 267 272 271 267 264 262 262 263 245 231 219 210 196 186 186 186 185 183 179 177 177 172 165 160 168 171 171 163 154 146 156 169 169 169 170 174 176 177 179 181 182 158
263 266 271 272 272 271 267 268 257 238 238 225 197 189 185 186 188 181 177 175 168 168 169 168 160 157 169 181 178 168 166 162 162 161 161 163 167 174 178 177 178 182 175 160
273 278 279 278 272 270 271 266 250 237 223 203 192 191 190 186 181 179 175 171 170 173 172 159 143 168 179 181 175 180 171 160 152 148 148 147 177 181 180 184 187 187 188 187
286 283 287 289 277 260 246 243 237 217 212 202 183 174 176 177 173 168 164 171 187 183 158 153 162 180 187 173 177 183 181 176 168 167 169 179 182 182 185 186 192 197 202 204
315 311 315 313 315 236 218 212 207 206 200 183 165 163 168 168 169 170 172 183 169 149 148 149 176 185 181 155 181 191 182 181 185 192 189 189 183 181 186 194 204 210 208 209
321 309 301 324 37 166 186 196 195 192 178 169 164 165 163 162 168 177 184 191 134 123 168 183 182 145 140 162 193 192 180 176 186 195 195 195 193 193 198 203 209 213 205 202
306 300 295 253 212 217 220 208 189 179 174 170 169 172 174 176 180 175 173 149 145 137 180 169 119 124 165 192 190 192 189 190 196 201 204 205 213 211 203 204 203 202 202 206
302 294 280 256 224 204 211 205 189 184 184 181 175 179 181 174 177 196 169 117 117 130 152 109 115 151 205 199 194 200 201 200 202 211 216 213 212 208 202 196 199 203 206 212
293 284 275 264 246 226 209 201 185 177 185 179 160 158 168 173 181 175 132 129 132 145 138 118 138 173 194 197 201 202 204 199 211 224 214 210 202 187 187 186 189 195 195 202
261 248 244 257 267 243 208 195 184 169 164 161 162 165 160 156 156 153 152 154 156 160 166 145 141 160 152 150 171 189 196 175 169 179 198 200 185 168 159 164 178 187 180 184
232 209 218 232 226 220 199 185 176 173 168 160 159 156 150 147 147 147 146 146 148 151 143 131 136 136 139 149 158 168 167 152 146 164 176 184 199 207 193 187 192 203 204 202
Height
1476 1473 1472 1474 1474 1474 1476 1473 1474 1469 1466 1463 1466 1470 1473 1475 1476 1477 1478 1480 1481 1482 1483 1485 1486 1488 1491 1494 1497 1500 1502 1505 1507 1510 1513 1515 1517 1519 1520 1522 1524 1525 1526 1526
1480 1475 1473 1473 1470 1470 1470 1469 1467 1466 1465 1462 1467 1470 1472 1474 1475 1475 1476 1478 1479 1480 1481 1482 1483 1486 1488 1491 1493 1496 1498 1501 1504 1506 1508 1510 1512 1514 1516 1517 1519 1520 1521 1522
1479 1473 1475 1475 1466 1465 1466 1464 1465 1465 1464 1465 1468 1470 1471 1472 1473 1473 1474 1476 1477 1478 1479 1480 1481 1483 1485 1487 1490 1492 1494 1497 1500 1502 1504 1506 1508 1509 1511 1512 1514 1515 1515 1516
1478 1480 1487 1464 1460 1461 1463 1462 1462 1463 1465 1468 1470 1471 1472 1472 1472 1472 1473 1474 1475 1475 1476 1477 1479 1480 1482 1484 1486 1488 1491 1493 1495 1498 1500 1502 1503 1505 1506 1508 1509 1510 1510 1511
1479 1479 1471 1463 1462 1463 1464 1464 1464 1465 1467 1469 1470 1469 1469 1471 1471 1471 1471 1472 1472 1473 1474 1475 1476 1477 1479 1481 1483 1485 1487 1489 1491 1493 1495 1497 1499 1500 1502 1503 1504 1505 1506 1507
1479 1483 1478 1461 1461 1464 1466 1466 1465 1467 1468 1468 1468 1465 1464 1469 1469 1469 1470 1470 1470 1471 1471 1472 1474 1475 1476 1478 1479 1481 1483 1485 1487 1489 1491 1492 1494 1496 1497 1498 1500 1501 1502 1503
1476 1476 1464 1460 1463 1465 1471 1466 1467 1467 1467 1467 1467 1466 1466 1466 1466 1467 1467 1467 1468 1468 1469 1470 1472 1473 1474 1476 1477 1478 1480 1482 1484 1486 1487 1488 1490 1491 1492 1494 1495 1497 1498 1499
1472 1474 1467 1463 1464 1465 1466 1467 1467 1466 1466 1466 1466 1465 1464 1463 1463 1464 1464 1465 1465 1466 1467 1469 1470 1471 1472 1473 1474 1476 1477 1478 1480 1482 1483 1485 1486 1488 1489 1490 1492 1493 1494 1495
1465 1466 1466 1466 1467 1468 1468 1467 1466 1465 1465 1465 1463 1462 1462 1461 1461 1462 1462 1463 1464 1465 1466 1467 1468 1469 1470 1471 1472 1473 1474 1475 1477 1479 1480 1481 1482 1484 1486 1487 1488 1489 1490 1491
1467 1463 1465 1467 1467 1467 1467 1465 1464 1463 1463 1462 1461 1460 1459 1459 1459 1459 1460 1461 1462 1463 1464 1465 1467 1468 1469 1469 1470 1471 1472 1473 1474 1476 1477 1478 1480 1482 1483 1484 1485 1486 1487 1488
1465 1464 1465 1465 1465 1465 1464 1463 1461 1460 1460 1459 1459 1458 1457 1457 1457 1458 1459 1459 1460 1461 1462 1463 1465 1466 1467 1467 1467 1468 1470 1471 1472 1474 1475 1476 1477 1479 1480 1481 1482 1483 1484 1485
1462 1463 1464 1464 1464 1463 1461 1460 1459 1458 1457 1456 1456 1455 1455 1455 1456 1456 1457 1458 1458 1459 1460 1462 1463 1464 1465 1465 1466 1467 1468 1469 1471 1472 1473 1474 1476 1477 1478 1479 1480 1481 1482 1483
1464 1463 1463 1462 1461 1460 1459 1457 1456 1455 1454 1454 1454 1454 1453 1453 1454 1455 1455 1456 1457 1458 1459 1460 1461 1462 1463 1464 1465 1465 1466 1467 1469 1470 1471 1473 1474 1475 1476 1477 1478 1479 1480 1481
1462 1461 1459 1459 1457 1457 1456 1455 1454 1453 1452 1452 1451 1451 1451 1451 1452 1453 1454 1455 1456 1457 1458 1459 1460 1461 1462 1462 1463 1464 1465 1466 1467 1469 1470 1471 1472 1473 1474 1475 1476 1477 1478 1479
1458 1458 1457 1455 1454 1453 1453 1452 1451 1450 1449 1449 1449 1449 1449 1450 1451 1451 1452 1453 1454 1455 1457 1458 1458 1460 1460 1461 1462 1462 1464 1465 1466 1467 1468 1469 1471 1472 1473 1474 1475 1476 1477 1477
1455 1454 1453 1452 1451 1450 1450 1449 1448 1448 1447 1447 1447 1447 1448 1448 1449 1450 1450 1451 1452 1454 1455 1456 1457 1458 1459 1460 1460 1461 1462 1462 1464 1465 1466 1468 1469 1470 1472 1473 1474 1475 1476 1476
1451 1450 1449 1448 1447 1447 1447 1447 1446 1446 1446 1446 1446 1446 1446 1447 1448 1448 1449 1450 1451 1453 1454 1455 1456 1456 1457 1458 1459 1460 1461 1462 1463 1464 1465 1466 1468 1469 1471 1472 1473 1473 1474 1474
1448 1447 1446 1445 1444 1443 1444 1444 1444 1445 1445 1445 1445 1445 1445 1446 1446 1447 1448 1449 1451 1452 1453 1454 1454 1455 1456 1457 1458 1459 1460 1461 1462 1463 1464 1465 1467 1468 1469 1470 1471 1472 1472 1472
1445 1444 1443 1442 1442 1442 1442 1442 1442 1443 1443 1443 1443 1444 1444 1445 1446 1446 1447 1448 1449 1450 1451 1452 1453 1454 1455 1456 1457 1458 1460 1461 1462 1463 1464 1464 1466 1467 1468 1469 1470 1471 1471 1471
1443 1442 1441 1441 1440 1440 1441 1441 1441 1442 1442 1442 1443 1443 1443 1444 1444 1445 1446 1447 1448 1449 1450 1451 1452 1453 1454 1455 1456 1458 1460 1461 1461 1462 1463 1464 1465 1466 1466 1467 1468 1469 1470 1470
1442 1441 1440 1440 1440 1440 1440 1440 1441 1441 1441 1442 1442 1442 1443 1443 1443 1444 1445 1446 1447 1448 1448 1449 1450 1452 1453 1454 1456 1457 1459 1460 1461 1462 1462 1463 1463 1464 1465 1466 1466 1467 1468 1468
1441 1440 1440 1439 1439 1439 1440 1440 1440 1441 1441 1441 1442 1442 1442 1442 1443 1444 1445 1446 1447 1447 1448 1449 1450 1451 1452 1454 1455 1457 1458 1459 1459 1460 1461 1461 1461 1462 1463 1464 1464 1465 1465 1465
1440 1440 1439 1439 1439 1439 1439 1440 1440 1440 1440 1440 1441 1441 1442 1442 1443 1444 1445 1446 1446 1446 1448 1449 1450 1451 1452 1453 1454 1455 1456 1457 1458 1459 1459 1459 1460 1460 1461 1462 1462 1463 1463 1463
1440 1439 1439 1439 1439 1439 1439 1439 1439 1440 1440 1440 1441 1441 1442 1443 1443 1444 1445 1446 1446 1447 1448 1449 1449 1450 1451 1452 1453 1454 1455 1456 1456 1457 1458 1458 1458 1459 1459 1459 1460 1461 1461 1461
1439 1438 1438 1438 1438 1438 1438 1438 1439 1439 1439 1440 1441 1441 1442 1443 1444 1445 1445 1446 1446 1447 1448 1449 1449 1450 1450 1451 1452 1453 1453 1454 1455 1456 1456 1456 1457 1457 1457 1457 1458 1458 1458 1458
1438 1438 1438 1438 1437 1437 1437 1438 1438 1438 1439 1440 1441 1442 1443 1444 1444 1445 1445 1446 1446 1447 1448 1449 1449 1449 1450 1451 1451 1452 1452 1453 1453 1454 1454 1454 1455 1455 1455 1455 1455 1456 1456 1456
1437 1437 1437 1437 1437 1437 1437 1437 1438 1438 1439 1440 1441 1442 1443 1443 1444 1445 1445 1446 1447 1447 1448 1448 1449 1449 1450 1450 1450 1451 1451 1452 1452 1453 1453 1453 1453 1453 1453 1453 1453 1453 1453 1453